GFSSW_850_temp_108.txt.gz
Temp
11 11 11 11 11 11 11 11 11 11 11 12 12 12 12 12 13 14 14 14 14 14 13 13 13 13 14 15 15 16 20 21 22 21 22 21 21 20 19 20 20 20 20 20 20
10 10 10 10 10 11 11 11 11 11 11 11 11 12 11 12 13 14 14 14 13 13 12 12 13 13 15 16 16 18 20 21 22 22 21 21 20 20 19 21 20 20 20 20 19
10 10 10 10 10 10 10 10 10 10 11 11 11 11 11 11 12 14 14 14 14 13 12 12 13 14 16 16 16 18 19 21 19 18 19 20 20 19 19 20 20 20 20 19 19
11 10 10 10 10 10 10 10 10 10 10 10 11 11 10 11 16 13 14 13 14 13 12 12 13 14 16 17 17 16 17 17 18 18 18 19 18 19 19 19 18 18 18 18 19
10 9 9 9 9 9 10 9 9 10 9 9 10 10 10 10 12 12 13 13 12 12 12 13 14 15 16 17 17 16 18 17 16 16 17 17 18 18 18 18 18 18 18 18 18
10 10 9 9 9 9 9 9 9 9 9 9 9 9 8 10 13 13 13 12 11 10 12 13 14 15 15 16 16 17 16 17 16 17 16 17 18 18 18 17 18 17 17 18 18
10 10 10 10 9 8 8 9 9 9 8 8 7 8 5 10 12 12 12 12 10 11 12 12 13 13 15 16 15 15 16 17 17 17 18 17 18 18 18 18 18 17 17 18 17
9 9 9 9 8 8 8 8 8 8 7 6 6 5 6 11 11 12 11 10 11 10 11 11 11 13 13 14 15 15 16 16 18 17 17 17 18 20 18 18 18 18 18 18 18
10 9 9 8 7 7 7 7 7 7 6 5 5 4 8 10 10 11 11 10 10 10 10 10 11 13 13 14 16 17 17 17 18 18 18 17 18 19 18 17 18 18 18 18 18
10 10 9 7 7 7 7 6 6 6 4 4 3 5 9 11 10 11 11 10 11 10 10 11 12 14 14 15 16 18 17 17 16 18 16 17 17 18 18 18 18 18 18 18 17
9 8 8 6 7 7 7 6 4 3 3 7 8 10 10 10 11 11 11 10 11 12 13 13 13 14 15 15 16 16 15 16 17 18 16 16 17 18 19 18 18 18 18 17 15
7 6 6 6 6 7 6 5 6 6 6 6 6 6 8 8 10 11 10 12 12 13 15 14 12 16 16 15 14 14 14 15 16 16 15 16 17 18 19 19 18 18 17 15 14
8 6 6 6 6 6 6 6 6 5 4 8 8 8 9 8 9 11 11 12 14 14 15 14 16 15 14 14 13 14 14 15 15 16 16 16 17 19 18 18 17 15 14 13 11
8 6 6 6 6 6 5 5 4 3 3 11 9 9 8 8 10 10 12 13 13 14 15 13 15 14 13 14 14 14 15 14 14 14 15 16 16 18 18 18 17 14 13 12 10
6 6 6 6 5 4 5 4 4 4 6 12 10 8 8 10 12 12 11 12 13 13 13 13 13 13 13 14 14 14 15 14 15 15 15 16 15 19 18 17 16 15 11 10 8
6 6 6 6 5 5 5 3 4 4 7 10 11 10 9 10 11 11 11 11 13 13 13 13 13 14 14 14 14 14 14 14 14 14 13 16 16 18 17 17 15 13 10 8 7
6 6 6 6 5 4 3 3 4 6 10 11 11 10 11 11 11 12 11 12 12 11 11 13 13 13 13 13 13 13 13 13 13 13 14 15 16 17 15 14 13 11 10 8 7
6 6 5 5 4 4 3 3 6 10 11 11 12 12 11 12 12 11 11 11 11 12 12 12 11 12 12 13 13 13 14 13 12 14 15 14 14 16 12 10 8 7 7 6 6
6 4 5 3 3 3 4 5 8 9 11 10 11 10 11 11 12 11 11 11 12 12 12 11 11 10 10 10 10 12 11 12 11 12 12 15 16 12 11 9 9 8 7 5 4
4 2 1 1 2 2 3 6 8 10 10 10 11 12 11 11 11 12 11 10 9 9 11 8 8 9 9 10 10 11 11 10 10 10 11 14 15 15 10 10 9 6 6 5 4
2 0 -0 0 0 1 4 5 7 8 9 10 11 10 11 10 11 11 10 8 9 6 8 9 9 8 8 9 11 10 10 10 10 11 11 12 14 11 8 7 7 7 5 4 3
0 -0 -1 0 1 1 3 5 5 5 6 8 9 9 10 8 9 9 8 9 7 8 8 7 9 9 9 8 8 9 9 10 9 9 10 10 11 10 8 8 6 6 4 3 2
-1 -2 -1 -1 3 3 4 4 7 7 9 9 8 9 8 6 6 7 7 6 6 8 8 8 8 8 8 8 8 8 9 9 7 8 8 9 11 10 7 6 5 5 3 2 1
-0 1 -1 -1 0 5 3 3 4 6 7 8 8 8 8 7 6 6 6 6 6 7 5 7 8 9 9 8 9 7 8 8 7 6 8 9 10 11 10 10 8 4 2 1 -0
0 2 3 2 2 3 3 4 5 6 7 7 7 8 8 7 6 6 7 6 6 5 5 7 6 7 8 8 7 7 8 8 7 7 6 7 7 7 8 8 4 2 1 0 -2
1 3 3 5 3 3 4 6 7 6 7 7 7 7 8 7 8 7 7 7 6 5 5 5 5 5 6 7 7 6 7 7 7 7 7 7 6 8 7 2 2 0 -1 -2 -3
1 2 3 2 3 4 5 7 8 6 5 7 7 7 6 5 6 6 5 6 6 6 4 5 5 4 4 5 5 5 6 6 7 7 6 4 6 8 4 2 1 -1 -2 -4 -5

GFSSW_850_temp_111.txt.gz
Temp
11 11 11 11 11 11 11 11 11 11 11 11 11 12 12 13 14 14 14 15 14 14 15 14 14 15 16 18 19 19 21 23 25 26 27 26 24 25 23 23 24 23 23 23 22
11 10 10 10 10 10 10 10 11 11 11 11 11 11 11 12 14 13 14 14 15 15 14 14 16 16 18 18 19 20 21 23 26 25 25 25 24 24 24 23 23 23 22 22 22
11 11 10 10 10 10 10 10 10 11 11 11 10 11 11 12 13 17 15 15 15 15 14 15 16 17 18 20 20 20 20 23 24 24 22 22 23 23 23 23 22 22 22 22 21
10 10 10 10 10 10 10 9 10 10 10 10 10 10 11 11 17 15 15 14 14 14 14 15 16 17 19 21 20 20 21 21 21 21 21 22 21 22 22 22 21 21 20 20 20
10 10 10 10 9 9 9 9 9 9 9 10 10 10 10 12 14 14 14 13 13 13 14 16 17 18 19 20 21 21 22 20 21 20 20 20 21 21 21 21 20 20 20 19 19
10 10 11 10 9 9 9 9 9 9 9 9 9 9 8 11 13 13 14 12 12 13 14 15 16 17 18 19 20 20 20 20 20 20 20 20 20 20 21 20 20 19 19 19 19
10 10 10 10 10 9 8 8 8 8 8 8 8 8 6 10 13 13 12 12 13 13 14 15 15 16 17 19 18 19 19 20 20 20 21 20 20 21 21 21 21 20 20 19 19
10 10 10 10 9 9 7 7 7 8 7 7 7 6 6 11 12 12 12 12 12 12 13 14 14 15 16 17 18 18 19 18 22 23 21 20 19 23 22 21 21 20 20 20 20
10 10 10 9 9 7 6 7 7 7 7 6 5 5 10 11 11 11 11 12 13 12 13 13 13 15 16 17 17 19 18 20 22 23 20 20 20 23 21 20 20 21 21 20 20
9 8 9 9 9 6 6 6 6 6 6 5 5 6 9 12 14 12 12 12 13 13 13 12 14 16 17 17 17 20 21 22 21 22 22 20 20 22 21 20 20 20 21 21 20
9 8 8 8 6 6 7 6 5 5 3 8 11 12 13 13 12 12 12 12 13 14 15 15 15 16 18 19 19 19 19 20 21 22 20 20 20 21 21 21 21 20 20 20 20
9 9 8 6 6 5 6 6 7 8 10 8 9 10 11 12 12 13 13 13 14 15 17 16 15 17 19 19 18 18 18 18 20 20 20 19 19 21 22 22 21 21 21 20 18
9 9 8 6 6 6 6 5 6 6 7 10 11 11 12 11 12 13 14 14 15 16 16 16 17 19 17 17 17 18 17 17 18 19 20 19 18 20 22 22 21 21 20 18 16
8 8 7 5 6 6 5 6 5 6 5 12 14 12 12 12 13 12 13 14 15 15 16 16 18 17 17 16 17 16 18 17 17 17 16 20 18 22 21 20 20 19 17 16 14
8 9 6 5 6 5 5 5 5 6 7 16 16 11 12 12 15 16 14 14 15 16 16 14 15 15 15 15 16 16 17 17 17 16 17 18 18 20 22 21 19 18 16 13 12
8 7 6 6 6 5 5 4 5 6 8 14 14 13 13 12 13 14 14 13 15 15 16 16 16 16 16 16 17 17 16 15 16 16 14 17 18 19 21 21 20 16 13 12 11
7 6 5 5 5 5 5 4 5 8 14 14 14 14 13 14 14 15 14 14 14 13 13 15 14 15 15 13 14 15 14 12 13 13 14 18 18 19 19 18 18 15 13 11 11
6 6 6 6 5 5 4 4 7 13 14 15 15 14 13 15 15 15 14 14 14 15 14 10 9 14 14 14 13 14 13 12 10 12 14 18 16 17 15 14 12 12 11 11 10
6 6 5 5 5 4 5 6 9 13 15 15 14 13 14 15 14 14 14 15 16 15 12 10 11 13 13 14 13 14 13 15 12 13 13 15 17 15 12 12 11 10 10 10 9
6 4 3 4 3 3 4 7 11 14 14 14 13 14 14 14 14 14 14 15 15 14 14 12 9 12 12 12 13 13 12 11 12 10 12 14 15 16 11 10 10 10 10 9 8
5 2 1 1 1 2 4 7 8 12 12 13 13 14 14 14 14 14 14 13 14 12 12 13 12 11 11 11 12 11 11 11 12 11 10 11 13 13 10 10 10 11 9 8 7
2 1 1 1 1 1 4 5 9 11 10 11 12 13 13 13 13 13 12 11 12 11 10 10 10 8 10 12 11 12 11 12 10 10 12 12 13 12 11 11 10 9 8 7 6
-1 -2 -0 0 3 3 4 6 8 10 10 10 10 11 10 10 10 10 10 8 9 10 10 8 8 8 10 11 10 10 10 11 11 11 10 11 12 11 11 11 9 9 8 6 5
-0 0 -1 -1 0 4 4 6 8 9 10 10 11 11 10 9 10 8 8 8 8 9 7 9 10 10 10 10 10 9 10 11 10 8 10 11 12 13 12 12 12 9 6 5 4
0 2 2 2 2 3 5 5 7 7 9 9 9 9 9 8 8 7 7 7 8 6 8 9 8 10 10 11 10 10 10 10 10 9 8 10 9 10 11 11 9 5 5 4 2
0 3 2 5 5 3 3 4 5 6 7 7 9 10 10 9 10 9 9 8 8 8 8 8 7 7 8 9 9 9 10 10 10 10 10 10 9 11 10 8 6 4 3 2 -1
0 3 4 2 3 3 4 5 6 7 8 10 10 10 10 10 9 10 10 10 10 8 7 7 7 6 6 8 8 7 8 9 10 11 10 7 9 9 7 4 4 2 0 -2 -3

GFSSW_850_temp_114.txt.gz
Temp
11 11 11 11 11 11 11 11 11 11 11 12 12 12 12 12 14 15 14 15 16 16 15 15 16 16 17 18 19 20 20 20 22 24 26 27 26 25 25 24 24 24 24 24 23
11 10 10 10 10 10 10 10 10 10 10 11 12 12 11 12 14 17 15 16 16 16 16 15 17 18 18 19 20 21 20 21 24 25 26 25 25 24 24 25 24 24 24 23 23
10 10 10 9 10 10 10 10 10 10 10 10 11 11 11 11 14 16 16 16 15 16 16 16 17 18 19 20 21 21 20 22 23 23 24 24 23 23 23 23 24 24 23 23 22
10 10 10 9 9 9 9 9 9 9 9 9 10 10 11 11 16 15 15 15 15 14 14 16 17 18 19 20 21 21 22 22 22 22 22 23 22 23 23 23 23 23 22 22 21
10 10 10 10 10 10 8 9 9 9 9 9 9 9 10 11 13 14 14 15 15 15 14 16 17 18 19 20 21 22 22 22 22 22 22 22 22 21 22 22 22 22 21 21 20
10 10 10 10 10 10 9 7 8 8 8 8 8 8 7 10 13 14 14 13 14 14 14 16 17 18 18 19 19 20 21 21 22 21 21 22 22 21 21 21 22 21 21 20 20
10 9 10 10 10 9 9 8 7 7 8 7 8 8 6 9 13 14 14 13 14 14 15 16 16 16 17 18 19 20 19 20 21 21 21 21 21 21 21 21 22 22 21 21 20
9 10 9 10 10 9 8 9 6 7 6 7 7 7 6 11 12 12 13 13 13 14 14 14 15 16 16 17 18 18 19 18 20 22 22 22 19 22 22 23 23 22 22 21 21
9 9 9 9 10 9 8 8 6 7 6 6 6 7 8 11 12 14 12 13 14 14 14 14 15 15 16 16 16 18 17 18 20 23 24 22 20 22 22 23 22 21 21 21 21
9 9 9 8 8 6 7 6 5 6 6 6 5 6 9 12 14 14 14 13 14 15 14 14 14 15 16 16 16 18 19 20 21 23 24 23 21 22 22 22 22 21 21 21 22
8 8 8 8 6 6 5 6 5 6 4 8 11 12 15 15 14 14 14 14 14 15 15 15 15 14 16 18 18 18 18 18 20 21 21 21 21 22 22 22 22 22 21 21 21
7 8 7 7 6 6 5 5 7 8 9 9 10 11 12 13 14 14 15 14 15 15 16 16 15 17 18 18 18 18 18 18 20 21 20 20 20 22 22 22 22 22 22 21 21
7 7 6 6 6 4 5 5 6 6 8 10 11 12 13 13 13 14 14 15 15 15 16 15 17 19 18 18 17 18 17 18 18 19 20 19 19 20 21 22 22 22 22 21 19
7 6 6 6 4 4 5 5 6 7 7 12 15 14 14 14 14 14 14 14 15 15 16 16 17 17 17 17 18 16 18 18 18 17 15 19 16 19 21 22 23 22 19 16 15
7 6 5 5 4 5 4 5 5 7 8 17 16 14 14 15 16 17 15 15 14 15 15 15 16 16 16 16 17 16 18 16 15 13 14 16 16 17 20 21 21 20 16 14 13
6 6 5 4 4 5 5 5 5 6 8 14 16 15 15 14 15 15 16 15 15 15 15 16 17 17 16 16 16 17 16 16 15 14 12 14 15 16 18 20 20 16 15 13 12
6 5 5 5 5 4 5 4 5 7 15 15 16 16 15 15 15 15 15 15 14 13 14 16 16 17 16 15 16 15 13 11 10 11 12 15 15 17 14 16 15 14 14 12 11
5 5 5 6 5 5 5 5 7 12 13 18 17 17 16 16 16 16 15 15 16 15 15 14 13 16 16 15 14 14 13 9 9 10 12 11 12 14 13 12 12 13 12 11 11
4 5 6 6 5 4 5 5 9 12 16 15 16 15 16 16 16 16 16 15 16 16 13 13 12 15 15 15 14 13 12 13 10 9 10 12 13 11 13 12 11 11 11 10 10
3 5 5 4 4 4 5 6 10 13 15 16 14 16 14 15 16 16 15 16 16 17 17 14 12 11 13 13 14 13 14 11 8 8 10 14 15 10 11 11 11 10 10 9 9
4 4 3 4 3 3 5 7 9 12 13 13 14 15 15 14 14 13 14 16 15 15 15 14 11 10 11 11 11 12 12 12 12 10 8 10 12 11 9 9 9 10 9 9 8
4 2 2 2 1 1 4 5 8 12 12 13 14 14 14 14 13 15 13 13 12 13 11 9 10 9 10 13 13 13 13 12 10 10 11 11 10 12 11 11 11 10 9 8 7
2 0 1 1 3 3 5 5 7 10 12 13 13 13 13 12 11 13 13 10 10 11 10 9 6 8 10 10 12 11 12 12 11 11 9 8 10 12 12 11 10 10 9 7 6
1 0 -1 0 1 5 4 5 7 8 10 11 12 13 12 11 12 10 11 9 9 11 9 9 9 8 7 9 11 10 11 12 11 8 9 10 10 12 11 11 11 8 7 6 4
0 1 3 1 1 3 5 6 7 6 7 8 8 10 12 10 10 8 10 9 8 8 8 9 8 9 10 11 11 11 11 11 11 11 9 9 9 11 12 10 9 7 6 5 1
0 2 1 4 4 3 4 5 6 7 8 7 9 10 10 9 9 9 10 9 7 9 8 9 7 7 7 10 10 10 11 11 10 11 10 11 10 12 11 8 7 5 4 1 -1
0 1 2 3 4 4 4 7 7 8 7 9 9 8 8 9 10 10 10 10 10 9 8 8 7 7 6 8 9 7 9 10 10 11 10 8 9 7 6 3 1 1 -1 -2 -4

GFSSW_850_temp_117.txt.gz
Temp
11 11 11 11 10 10 10 11 10 10 10 11 11 12 12 13 14 16 16 16 15 16 17 17 16 16 16 17 18 19 14 14 16 18 20 23 21 24 24 24 24 24 24 24 23
11 11 11 10 10 9 9 9 10 10 10 10 11 12 11 12 14 16 16 16 16 16 16 16 16 17 17 18 18 17 13 16 18 19 20 21 21 22 22 22 22 23 24 24 23
10 10 10 10 9 9 9 9 9 9 9 9 10 10 11 11 13 16 16 15 15 15 15 15 16 17 18 18 18 18 16 17 19 20 21 20 21 22 21 20 22 22 23 23 22
10 10 10 10 10 9 9 10 9 8 8 9 9 9 10 10 13 15 15 14 15 15 15 15 16 17 16 16 19 16 19 19 20 21 21 20 21 20 21 21 21 22 22 22 22
10 10 10 10 10 10 10 10 7 7 7 8 9 8 9 9 11 15 14 14 15 14 15 15 15 16 15 17 18 16 17 19 20 20 20 21 20 20 20 21 21 21 21 21 21
10 9 9 10 10 10 10 9 9 7 7 8 8 7 7 7 15 13 14 14 14 14 14 15 15 16 16 17 16 18 18 18 18 19 19 19 19 20 20 21 21 21 21 21 21
9 9 9 9 9 9 10 9 9 7 6 7 7 6 6 9 14 14 13 12 13 14 14 14 15 15 16 15 16 17 15 16 17 19 18 20 18 18 20 21 21 21 21 21 21
9 9 9 9 8 9 9 9 8 8 6 7 6 6 6 12 11 12 12 13 13 13 14 14 14 14 15 15 15 14 15 14 16 17 19 18 17 19 21 21 20 21 21 21 21
9 9 9 8 8 8 9 9 6 6 5 6 6 6 6 12 13 14 13 12 13 13 14 14 14 14 14 12 11 13 11 13 15 18 18 18 18 20 21 21 21 21 21 21 21
8 8 8 8 7 8 7 7 5 5 5 6 5 5 8 14 14 14 14 14 13 14 14 14 14 11 11 10 10 12 13 14 15 16 18 17 17 18 21 21 21 21 21 21 21
7 7 7 7 6 7 6 5 6 6 4 8 11 11 13 14 14 14 14 14 14 13 12 14 10 9 10 12 14 14 15 15 16 17 17 17 17 18 19 19 20 19 20 21 17
6 7 6 6 5 6 5 5 6 6 6 7 8 8 10 12 11 14 14 14 14 12 13 12 11 13 14 15 15 15 14 14 16 17 17 16 16 17 18 18 20 20 20 20 15
5 5 5 5 5 5 4 5 5 6 6 8 10 10 10 10 11 12 12 13 13 12 12 12 14 15 15 15 15 15 14 15 15 15 15 14 14 15 17 19 20 21 21 20 14
4 4 4 4 4 3 3 4 6 7 4 9 12 13 11 12 12 13 13 13 13 13 13 12 14 15 15 14 15 14 16 16 15 12 11 12 10 13 15 17 18 18 16 14 12
3 3 3 3 4 4 4 5 6 7 5 14 15 14 14 13 15 15 15 14 12 12 13 12 13 13 14 14 15 14 14 14 14 13 11 12 10 12 15 15 16 13 12 11 11
3 3 3 4 3 4 4 5 6 6 6 13 15 14 14 14 14 15 15 14 14 13 13 13 14 14 14 15 14 14 13 12 12 11 9 12 11 11 12 15 12 11 11 10 10
3 3 3 3 3 4 5 5 5 5 13 14 14 15 14 14 14 14 14 12 11 11 10 13 13 14 15 14 13 12 11 8 7 8 10 13 12 13 10 10 11 10 10 10 9
3 3 4 4 4 4 5 4 5 9 11 15 15 15 14 14 14 14 13 12 13 13 11 11 9 14 12 13 11 11 11 7 8 8 9 11 10 7 7 7 5 9 9 8 8
2 3 4 4 4 4 4 4 6 9 12 12 13 12 13 14 15 14 13 13 13 13 12 11 11 13 14 14 12 12 10 11 9 8 7 8 9 6 6 6 6 5 5 5 5
2 1 2 4 4 4 4 5 7 10 12 12 11 13 13 13 13 13 13 15 14 14 13 12 11 11 12 13 13 12 13 9 6 7 8 10 10 8 7 6 6 6 6 6 6
1 2 3 4 4 4 4 5 7 9 11 11 11 11 12 12 12 10 9 11 13 13 12 11 9 9 10 10 10 11 10 10 9 7 7 7 8 9 7 6 8 8 7 6 4
2 1 2 4 2 1 3 6 8 9 11 10 11 11 10 11 11 10 9 7 9 11 9 8 7 6 8 11 11 10 10 10 6 7 7 6 7 9 8 8 9 8 7 4 3
1 2 2 2 3 2 4 6 7 8 9 10 11 11 10 11 9 11 10 10 10 10 8 8 5 6 8 9 10 9 10 11 9 8 7 6 7 10 11 10 8 7 4 3 2
-0 0 0 1 2 3 4 5 6 7 8 9 10 10 10 10 10 9 10 9 10 8 9 9 6 7 8 8 7 8 9 10 8 5 7 8 9 10 8 8 7 5 2 1 -0
-0 1 2 -0 1 2 4 5 6 6 8 9 8 7 9 8 9 9 10 7 8 8 8 7 6 8 9 9 10 7 8 9 9 8 7 8 8 8 8 5 5 4 1 -1 -2
-0 0 1 3 3 2 2 4 6 7 7 6 6 8 7 7 7 7 9 7 7 7 7 7 5 6 6 8 8 8 9 9 9 9 9 9 8 4 4 3 2 1 -1 -2 -3
-0 1 1 3 2 2 2 4 5 7 7 7 7 7 7 7 7 7 9 9 8 6 5 6 4 4 4 7 6 5 7 8 9 7 7 1 3 2 -0 -1 -1 -3 -3 -4 -5

GFSSW_850_temp_120.txt.gz
Temp
10 10 11 11 11 11 10 10 10 10 10 10 10 11 11 12 14 16 17 16 16 16 16 16 17 16 16 17 17 18 13 12 15 18 18 20 18 22 22 22 23 23 23 23 22
11 10 10 10 10 11 11 10 10 9 10 10 9 10 10 11 13 16 16 16 15 15 15 16 16 16 16 17 17 15 10 13 15 17 17 18 18 19 21 21 22 22 23 23 21
10 10 11 10 10 10 10 11 11 10 11 10 9 9 9 11 12 15 15 15 14 15 15 15 15 16 16 16 17 15 13 15 17 19 19 18 18 20 20 19 21 21 21 21 22
10 10 10 10 11 11 11 11 11 10 10 11 11 9 9 9 12 15 15 15 14 14 14 15 16 15 15 15 17 15 16 17 17 18 18 17 19 18 19 20 21 21 21 21 21
10 10 10 10 11 11 11 10 10 10 10 9 9 9 9 8 12 15 13 14 14 14 14 14 15 15 14 15 15 15 16 17 17 17 17 18 17 17 18 20 21 21 21 21 21
9 9 10 10 10 10 10 10 10 10 10 9 8 7 6 6 15 14 13 13 13 13 14 14 14 15 15 15 14 16 15 15 16 16 17 17 18 18 19 20 20 21 20 21 21
9 9 9 9 10 10 10 10 10 10 10 7 5 6 6 11 14 13 12 12 13 13 13 14 14 14 14 13 15 15 13 14 15 17 16 18 16 16 20 20 20 20 20 21 21
8 9 9 9 9 10 10 10 10 10 9 8 5 5 6 14 14 14 13 12 12 13 12 13 14 14 14 14 14 13 12 12 15 17 17 16 15 17 20 20 19 20 21 21 21
8 8 9 8 8 9 9 9 9 8 7 5 5 5 7 13 14 14 14 14 13 13 13 13 13 14 14 11 10 11 10 11 13 16 15 15 16 17 19 20 19 19 20 21 21
7 7 8 7 7 8 8 9 8 5 4 5 4 4 10 14 13 14 14 14 13 13 13 13 13 11 9 10 8 9 10 11 12 13 15 14 15 17 18 18 19 20 19 20 19
5 6 7 6 7 7 7 7 6 6 4 8 9 11 11 13 13 13 14 14 13 13 11 12 9 8 11 10 11 11 11 12 12 14 14 14 14 15 16 16 16 19 19 16 16
5 5 6 6 5 6 4 6 6 5 5 6 8 7 11 10 9 13 13 13 12 10 11 10 9 10 11 11 11 12 11 12 13 15 15 13 12 13 14 14 15 16 19 15 11
3 4 4 4 4 4 5 6 6 6 5 6 8 7 9 9 8 10 12 12 12 11 11 10 11 13 12 12 12 12 12 13 13 14 14 12 12 12 14 15 16 16 17 13 10
3 3 3 3 4 3 4 7 6 5 4 7 8 10 10 11 9 13 11 12 11 11 11 10 13 12 12 12 13 12 14 13 13 11 10 12 10 12 14 14 13 11 12 10 9
3 3 2 3 3 3 6 6 5 5 4 12 12 13 11 11 14 15 14 11 10 11 11 10 12 11 11 12 13 12 13 13 12 10 9 11 10 11 13 13 10 9 8 8 7
2 2 2 3 3 4 5 5 5 2 5 11 13 12 11 11 13 15 13 13 13 10 10 11 13 12 12 13 13 14 13 11 10 9 8 11 10 10 7 8 9 9 8 7 6
2 2 2 2 2 4 5 4 4 3 11 12 12 13 12 11 12 13 12 11 10 9 9 11 11 12 13 11 12 12 9 8 7 7 8 11 10 7 7 6 6 5 4 5 4
2 2 2 2 3 4 4 4 3 7 8 13 13 12 12 12 12 12 12 10 10 10 9 9 8 12 12 12 11 10 10 7 8 8 8 11 8 7 6 4 4 4 3 3 2
2 2 2 3 4 4 4 4 4 7 11 11 11 11 11 12 12 12 11 11 11 10 10 9 10 12 12 12 12 11 9 9 8 7 7 7 6 6 6 4 3 3 3 2 2
1 1 2 3 3 4 3 6 6 8 10 10 9 11 10 12 11 11 11 11 12 12 12 11 10 10 11 12 12 11 10 7 6 7 7 8 8 6 6 5 5 3 2 1 1
0 1 2 3 3 3 4 4 6 8 9 9 9 9 10 10 11 10 11 10 10 11 9 9 9 9 10 9 9 9 9 9 8 7 6 6 7 8 7 6 6 5 4 2 1
-0 0 2 2 2 2 3 5 7 8 8 8 9 9 8 9 9 10 9 10 8 9 11 8 7 6 8 10 10 10 9 9 6 6 6 5 6 8 6 6 7 4 2 1 1
1 1 2 2 3 2 4 5 6 7 8 8 8 9 9 9 8 9 9 9 8 9 8 8 6 6 7 8 9 8 9 9 9 7 7 5 6 8 8 7 5 3 2 -0 -2
0 -0 1 1 1 3 3 4 5 6 7 8 7 8 8 7 7 9 7 8 9 8 9 8 6 6 8 8 7 7 8 9 8 6 5 6 7 9 6 5 3 1 -1 -2 -2
-1 0 1 0 1 2 4 5 5 5 7 7 6 7 6 6 7 7 6 7 8 8 8 6 5 6 7 9 9 5 6 8 7 7 7 7 6 4 4 3 1 -0 -1 -3 -4
-1 -0 0 0 2 2 3 4 5 5 6 6 6 7 6 6 7 7 6 6 6 7 6 6 4 6 6 7 8 7 7 8 7 8 8 9 2 2 1 -0 -1 -2 -2 -3 -4
-1 -0 1 1 1 2 3 4 5 6 6 7 7 5 6 6 7 6 6 7 7 6 4 4 4 3 3 6 6 5 5 7 8 5 6 3 3 0 -1 -1 -2 -4 -4 -5 -6

GFSSW_850_temp_123.txt.gz
Temp
11 10 10 12 12 12 12 12 12 12 12 13 13 13 14 14 15 16 17 16 15 15 16 16 16 16 16 17 17 17 11 11 15 16 18 18 17 19 20 20 21 22 21 22 22
11 11 10 10 10 10 11 11 11 12 12 12 12 13 13 14 15 16 15 15 15 15 16 16 16 16 16 16 17 14 10 12 14 16 16 17 16 17 19 20 20 21 22 22 21
10 11 10 11 11 10 11 11 12 12 12 12 12 13 12 13 14 15 15 15 15 15 15 15 15 15 15 16 16 14 12 12 16 18 17 15 16 18 18 17 20 21 21 21 21
10 10 10 10 11 11 11 11 11 12 11 11 12 12 12 12 13 14 15 15 15 14 14 14 15 15 14 14 15 14 15 15 16 17 16 15 17 16 18 19 19 20 20 20 21
10 10 10 10 11 11 11 11 11 11 11 11 11 12 11 10 14 14 14 14 14 14 14 14 14 14 13 14 14 13 14 15 16 16 16 16 15 16 17 19 19 19 20 20 20
9 10 10 10 10 10 10 11 11 11 11 10 10 10 8 6 15 14 13 13 13 13 13 13 14 13 13 13 13 14 14 14 15 16 16 15 15 16 18 19 19 19 20 20 20
9 9 9 10 10 10 10 11 10 10 10 9 8 6 6 13 14 13 13 13 12 13 13 13 13 13 13 12 14 14 13 13 14 16 15 16 14 15 18 18 19 19 19 19 19
8 8 9 9 9 10 10 10 10 10 9 8 7 5 7 14 13 14 13 14 13 13 13 13 13 13 13 14 13 12 12 12 13 15 16 16 14 15 18 18 18 18 19 19 20
8 8 8 9 9 9 10 10 10 9 9 5 6 4 8 12 14 14 14 14 13 12 12 13 13 13 13 11 9 10 9 11 12 14 14 14 14 15 17 17 17 17 18 18 19
7 8 8 9 9 9 9 9 9 8 5 4 4 5 10 13 13 14 14 13 13 12 12 12 12 10 8 9 8 10 10 9 12 13 13 13 13 14 16 15 15 15 17 16 16
6 7 7 8 8 8 9 8 6 6 3 8 8 9 12 12 12 13 13 13 12 12 10 11 9 8 10 9 10 10 10 9 10 11 11 12 12 13 13 15 14 15 15 12 10
5 6 6 7 7 7 8 7 5 4 4 8 9 7 11 9 7 12 12 12 11 10 10 10 8 9 10 10 10 10 9 9 11 12 12 11 11 11 12 13 15 14 14 11 10
3 4 4 6 6 7 7 7 5 5 4 5 7 7 8 8 7 9 11 12 11 10 10 8 10 11 10 10 10 10 9 10 11 12 12 11 11 11 13 14 12 11 13 10 7
3 3 3 4 5 6 6 6 5 4 4 6 7 8 8 9 7 11 10 12 11 10 10 9 11 11 10 10 10 9 11 11 11 10 10 11 10 12 11 9 8 6 5 4 5
2 2 2 3 3 5 5 5 5 4 5 10 10 10 10 9 12 11 10 11 9 10 10 9 11 10 10 11 11 10 11 11 11 9 9 10 8 9 8 8 6 6 4 4 4
2 2 2 2 3 5 4 5 5 1 5 11 11 10 9 10 12 11 11 11 12 10 10 9 12 11 11 12 11 12 11 10 9 9 7 9 9 7 7 8 6 5 5 4 2
2 2 2 2 4 4 4 5 4 2 10 11 10 10 10 10 11 12 10 10 9 9 8 10 9 10 11 10 10 10 10 8 7 6 8 10 8 7 6 5 5 3 2 3 3
2 2 2 2 4 3 4 4 3 7 7 10 11 11 10 11 11 12 10 9 9 10 8 9 8 10 11 10 10 9 8 6 8 7 7 8 8 7 6 5 4 3 3 2 2
2 1 1 2 4 3 3 4 4 5 9 10 11 10 10 11 11 10 9 10 10 10 9 7 8 11 12 11 11 10 8 8 7 7 6 7 6 6 5 5 4 3 3 2 2
1 1 1 3 3 2 3 4 5 7 9 9 9 10 9 10 10 9 9 11 11 10 10 10 9 10 11 12 11 10 9 7 4 6 7 7 7 5 6 6 5 5 4 2 1
0 0 2 3 2 2 2 3 5 7 8 8 8 8 9 9 10 10 10 10 10 10 9 9 8 9 10 9 8 9 8 7 6 5 6 6 7 6 7 7 6 5 3 2 0
-0 -0 2 2 2 2 2 4 6 7 7 7 7 7 7 7 7 8 9 10 10 9 10 9 7 6 8 9 9 9 8 7 6 6 5 4 6 8 6 6 6 4 2 1 0
-1 1 2 1 2 2 3 4 5 5 6 7 7 7 8 7 6 8 9 9 8 8 6 6 5 6 7 7 8 8 8 8 7 6 7 6 6 7 6 5 4 1 -0 -1 -2
-1 -1 1 1 2 2 3 4 4 5 5 6 6 7 7 7 6 6 7 8 8 8 9 8 5 7 8 8 7 7 8 8 7 4 6 6 6 7 5 4 2 0 -2 -2 -3
-1 -0 1 0 1 2 3 3 3 5 6 6 5 5 5 5 6 5 6 7 7 8 7 5 5 5 7 8 8 7 7 7 7 5 4 6 6 3 3 2 -1 -2 -2 -3 -4
-1 -1 -0 0 1 0 2 3 3 4 5 5 5 5 5 5 6 6 6 5 6 6 5 5 4 6 6 7 8 6 6 6 6 6 6 5 3 0 -0 -1 -1 -2 -3 -4 -5
-1 -0 0 1 0 1 1 2 3 4 5 6 6 5 4 5 6 7 6 6 6 5 4 5 3 3 4 5 6 5 5 6 6 5 5 2 3 -0 -1 -2 -3 -4 -4 -4 -6

GFSSW_850_temp_126.txt.gz
Temp
10 10 10 10 10 11 12 12 12 12 12 12 13 14 15 15 16 17 17 16 15 16 16 16 16 16 17 17 17 17 11 12 14 14 17 17 15 18 18 19 19 20 21 21 22
10 10 10 10 10 10 11 11 12 12 12 13 13 14 14 15 15 16 15 15 15 15 16 16 16 16 16 16 16 13 10 12 13 15 16 16 15 17 17 18 19 20 20 20 20
9 9 10 10 10 10 11 11 12 12 11 12 13 13 14 14 15 14 14 15 15 15 15 15 15 15 15 15 15 12 11 12 15 16 15 14 15 17 17 15 18 19 20 20 20
9 10 10 10 10 11 11 12 12 12 11 12 12 13 13 13 13 15 15 15 15 14 14 14 15 15 13 14 14 13 14 14 14 16 15 14 15 16 17 18 18 18 18 19 19
10 10 10 11 11 11 11 11 11 11 11 11 11 12 12 12 14 15 14 14 14 14 14 14 14 14 13 13 13 13 13 14 15 15 15 15 14 14 16 18 17 18 18 18 19
9 10 10 10 10 10 10 10 10 10 11 11 11 11 11 8 14 14 14 14 13 13 13 13 13 13 13 13 12 13 13 13 14 15 15 14 14 16 17 16 17 18 18 18 19
9 9 9 9 10 10 10 10 10 10 10 11 11 11 9 13 14 13 14 14 13 13 13 13 12 13 13 12 13 13 12 11 13 14 14 14 14 14 16 16 17 17 18 18 17
8 9 9 9 9 10 10 10 10 10 10 10 10 10 10 14 14 13 13 14 13 12 13 13 12 12 13 13 12 12 10 10 13 14 15 15 12 14 16 16 16 17 17 16 16
7 8 8 8 9 9 9 10 10 9 10 10 9 9 10 13 13 13 13 13 13 12 12 12 12 12 12 9 8 8 9 10 11 14 12 13 12 13 15 15 15 15 16 15 16
6 7 7 8 8 9 9 9 9 9 8 7 7 6 12 13 13 13 13 13 12 12 11 11 11 9 8 8 8 9 9 9 9 11 11 10 11 12 14 14 15 15 14 13 10
4 5 6 7 8 8 8 8 7 7 5 9 9 10 12 12 12 12 12 12 12 11 10 11 8 7 9 8 10 10 10 9 8 10 10 10 10 10 13 13 13 13 12 6 6
3 3 6 6 8 8 8 7 6 4 4 9 10 7 9 9 9 13 11 12 11 9 10 9 7 9 10 10 9 9 9 8 9 10 11 10 10 10 10 9 6 7 7 5 4
2 3 4 5 6 7 7 6 5 4 3 7 7 6 8 8 7 9 11 11 10 9 9 8 10 10 10 10 9 9 9 9 9 10 10 9 9 11 8 6 5 3 3 3 3
2 2 3 4 6 5 4 4 5 4 1 6 6 8 7 7 6 10 10 11 10 9 9 9 10 10 10 10 9 9 10 10 10 9 8 10 8 9 6 5 4 3 3 3 3
2 2 2 3 5 4 4 5 5 4 4 9 8 8 8 8 10 9 10 11 8 9 9 9 10 9 9 10 10 10 10 10 10 8 8 9 7 8 7 5 4 3 3 2 3
2 2 2 3 4 4 4 4 5 1 5 10 9 8 8 9 10 10 10 10 11 10 10 9 11 10 10 10 10 11 11 10 7 7 7 8 8 7 6 6 4 3 3 3 4
2 2 2 2 3 4 4 5 2 2 9 10 9 8 9 9 10 10 9 9 8 8 8 9 9 10 11 10 10 10 9 6 6 6 8 8 7 9 5 6 4 3 3 4 5
2 1 2 2 3 3 4 4 1 7 6 9 10 10 9 10 10 11 9 9 9 9 7 8 8 9 9 9 9 7 8 7 8 7 7 7 7 7 6 5 4 4 3 3 3
1 1 1 2 2 2 3 3 3 4 8 8 10 10 10 11 11 10 9 8 9 9 9 7 8 10 10 10 10 8 7 8 7 6 6 6 7 6 6 5 4 4 3 2 2
1 1 0 2 2 2 3 4 4 6 8 8 8 9 9 9 9 9 9 10 10 9 10 9 8 10 10 11 10 9 8 6 4 7 7 6 6 6 5 5 5 4 3 4 2
0 0 1 2 2 1 2 2 4 6 6 7 7 8 8 8 8 9 9 10 10 9 8 8 8 9 10 8 8 8 7 6 6 6 6 6 7 5 6 6 5 5 5 4 1
-0 -1 1 1 1 1 3 3 5 5 6 6 7 7 6 7 7 7 8 10 10 10 10 8 6 6 7 9 8 8 8 9 7 6 5 4 7 7 6 5 6 5 2 1 -0
-1 -1 0 0 0 0 2 2 4 4 5 6 5 6 6 6 5 6 8 10 10 7 7 7 5 6 7 7 8 7 7 7 6 5 7 6 7 5 5 5 5 1 -0 -1 -1
-1 -1 -1 0 1 2 2 2 3 4 4 4 4 6 6 5 5 5 7 8 8 6 7 7 5 6 8 8 6 6 7 7 7 3 7 7 7 6 5 4 1 -1 -1 -1 -2
-1 -1 0 -0 0 1 2 3 2 3 4 4 3 4 4 4 5 4 5 6 7 7 6 4 5 5 5 7 7 7 7 7 7 7 6 7 6 6 5 3 0 -3 -2 -2 -4
-1 -1 -1 -1 1 0 1 2 2 3 3 4 4 4 4 4 5 5 5 4 5 6 5 4 4 4 5 6 7 6 5 5 6 6 6 6 5 1 -1 -1 -2 -2 -2 -4 -5
-1 -1 1 1 -1 -0 -0 2 2 3 4 4 4 4 3 5 6 6 6 6 5 5 4 3 2 3 5 5 5 4 4 5 6 6 5 3 4 -1 -1 -1 -3 -3 -3 -4 -5

GFSSW_850_temp_132.txt.gz
Temp
10 10 11 11 11 11 11 12 12 13 13 14 14 14 15 16 16 17 15 16 15 15 16 16 16 17 17 18 18 19 23 25 24 23 22 20 22 21 20 21 21 21 21 20 20
11 11 11 10 10 11 11 11 12 12 13 14 14 14 15 15 16 15 15 15 15 15 15 16 17 17 19 19 19 21 23 24 21 21 21 20 21 20 21 22 21 21 20 19 19
10 10 11 10 10 10 11 11 12 12 13 13 14 14 14 14 15 15 15 15 15 15 15 15 15 17 19 19 19 20 22 20 19 18 19 20 21 20 20 22 20 19 19 18 18
10 10 10 10 10 10 10 11 11 12 13 13 13 13 14 14 18 16 16 15 15 15 14 15 16 18 19 20 18 20 19 18 19 17 18 19 19 20 20 19 18 18 17 16 16
10 10 10 10 10 11 10 11 11 11 12 12 12 12 13 13 15 16 15 15 14 14 14 15 16 17 19 18 18 19 19 17 17 17 18 18 19 19 19 18 18 18 16 14 14
10 10 10 10 10 10 10 10 11 11 11 11 11 12 11 13 15 14 14 14 14 13 14 14 15 15 17 17 18 17 17 17 18 18 18 18 20 18 19 17 18 18 14 12 12
9 10 9 9 10 10 10 10 10 10 11 11 11 11 10 13 14 13 13 13 13 13 14 13 13 15 15 17 15 16 17 19 19 18 19 17 19 18 18 17 18 18 14 11 10
9 9 9 8 9 9 9 10 10 10 10 10 11 11 10 14 13 13 13 13 13 13 12 12 12 14 15 14 16 17 17 19 19 18 17 18 21 20 18 17 18 18 13 11 8
8 8 8 8 9 9 9 9 9 10 10 11 10 9 12 12 12 12 13 12 13 12 11 11 13 15 15 17 18 17 20 18 19 18 18 18 19 19 18 17 17 17 12 10 8
8 8 8 8 8 9 9 9 9 10 10 9 9 7 11 13 11 12 12 12 12 11 11 13 14 17 17 18 20 20 18 18 17 19 18 17 18 19 17 17 16 15 12 9 8
6 7 7 7 8 9 8 9 8 7 8 10 11 10 11 11 12 11 11 11 12 14 16 14 16 17 19 18 17 16 16 17 18 18 15 17 17 18 18 17 16 14 11 9 7
4 5 7 7 8 8 8 7 7 8 9 9 10 8 8 9 11 11 11 13 14 16 15 14 16 18 16 15 14 15 16 16 17 16 15 17 17 18 15 14 12 12 11 9 8
3 4 5 6 7 7 7 7 7 7 8 10 7 7 8 8 11 13 11 13 14 15 15 16 17 15 14 14 14 16 15 16 15 16 16 16 17 16 13 11 10 9 9 8 8
3 4 5 5 5 5 5 6 7 6 11 13 10 9 7 8 11 9 10 13 14 14 15 15 16 14 14 15 15 15 16 15 14 14 16 15 16 17 15 14 11 9 9 8 7
2 2 3 4 4 4 5 6 6 5 12 12 10 7 8 10 11 10 9 11 14 14 13 15 14 13 14 15 15 14 14 14 14 14 15 15 14 18 15 14 13 11 9 8 8
2 2 2 3 4 5 5 5 5 9 11 12 10 11 11 11 12 10 11 10 12 13 13 15 13 14 15 15 14 14 14 14 14 14 14 16 15 18 15 16 16 12 9 8 7
2 2 3 3 3 4 4 4 8 10 13 12 12 12 13 13 13 13 12 12 14 12 13 14 14 15 14 14 14 14 13 14 14 14 15 14 14 17 16 15 15 13 10 8 7
2 2 2 2 3 3 4 6 7 12 13 12 13 12 13 13 14 13 13 14 13 14 14 14 14 14 14 14 15 14 14 13 12 14 15 13 14 16 15 14 12 12 10 9 7
1 2 2 2 2 3 4 6 10 13 12 12 12 13 13 13 13 14 13 14 15 14 13 13 14 14 14 14 15 13 13 15 13 14 13 15 16 13 12 11 10 10 9 8 6
1 1 2 2 1 2 5 7 10 9 10 11 12 12 13 14 13 13 14 14 12 13 13 13 13 15 15 13 13 13 15 12 12 11 12 15 15 15 12 12 10 10 9 9 5
0 1 2 2 2 2 4 7 8 8 8 10 11 11 12 12 12 13 13 13 13 12 13 13 12 13 13 13 14 13 12 12 13 12 11 12 15 15 15 15 13 12 10 9 7
0 1 2 1 2 3 4 7 6 8 8 9 9 10 10 11 10 11 11 12 10 10 11 12 11 11 13 14 13 13 13 13 10 11 10 11 13 15 14 14 13 13 10 9 5
0 -0 0 1 3 3 6 6 6 6 8 8 8 9 10 10 9 10 11 11 9 11 11 11 11 10 12 13 12 11 12 11 8 6 8 9 12 13 12 12 11 11 9 7 3
-0 1 -1 0 3 5 5 6 6 5 6 6 7 7 8 8 9 9 9 9 8 9 8 8 10 10 10 12 12 10 11 12 10 8 10 12 13 15 13 12 11 10 7 5 2
-0 1 1 1 1 4 6 6 6 6 6 6 7 7 8 8 8 8 9 10 9 9 9 9 8 9 10 11 11 11 11 11 11 11 10 11 12 14 14 13 11 9 7 4 2
-1 0 -0 5 3 3 5 5 6 6 6 6 6 7 7 7 8 8 9 9 8 9 9 8 7 8 9 10 10 10 11 11 11 11 12 12 12 14 12 9 8 7 5 3 1
-1 1 3 4 3 1 3 5 6 6 6 6 7 7 6 7 7 7 7 7 8 8 8 8 7 7 6 9 8 8 10 11 12 13 12 10 12 13 11 8 7 5 3 2 -1

GFSSW_850_temp_138.txt.gz
Temp
12 12 12 12 12 13 13 14 14 14 14 15 15 16 16 17 18 19 17 18 18 18 18 19 20 22 22 23 24 24 24 25 27 28 26 26 27 25 25 25 25 25 24 22 22
12 12 12 12 12 12 13 13 14 14 14 14 15 15 16 16 18 17 18 17 17 17 17 19 20 21 22 24 24 25 25 26 26 26 26 26 26 26 25 26 25 24 23 22 21
11 11 11 11 12 12 12 13 13 13 14 14 15 15 15 16 17 17 18 17 17 17 16 18 19 20 22 24 25 25 24 26 26 23 24 25 25 25 25 25 24 23 22 21 20
11 11 11 11 11 12 12 13 13 13 14 14 14 15 15 16 19 17 17 17 17 17 16 18 20 21 23 24 25 24 25 25 25 23 23 24 24 24 24 24 22 22 20 19 19
11 11 11 11 11 12 12 12 12 13 13 14 14 14 15 15 17 16 17 16 17 16 17 18 20 21 23 24 25 24 24 25 23 23 22 22 23 23 24 23 21 21 19 18 18
10 10 11 11 11 11 12 12 12 13 13 13 13 13 12 15 16 15 15 15 16 17 18 19 20 20 20 22 23 24 23 23 23 23 23 23 23 23 24 23 22 21 19 16 16
9 10 10 10 11 11 12 12 12 12 13 12 12 12 11 14 16 15 15 15 16 16 18 19 18 19 20 22 22 22 21 22 23 23 23 23 22 22 24 22 21 21 19 16 15
9 9 9 10 10 10 11 11 11 12 12 12 12 12 12 15 15 15 15 15 15 15 16 16 16 17 18 20 21 21 22 21 25 25 23 22 21 25 23 22 21 22 19 16 14
8 9 9 9 10 10 10 11 11 11 12 12 11 10 13 15 15 15 14 16 16 15 15 16 16 17 20 19 20 22 21 23 24 24 23 22 22 25 23 22 22 21 21 17 14
7 8 8 9 9 10 10 10 11 11 11 11 9 11 13 16 16 15 15 15 16 16 16 15 17 19 19 20 19 22 23 23 23 23 23 22 22 23 23 23 23 22 21 17 15
6 6 7 8 9 9 9 9 10 8 9 13 15 14 16 15 14 15 15 15 16 16 17 18 18 18 21 22 23 23 22 21 23 24 23 23 23 22 23 23 23 22 21 17 14
6 6 6 7 8 8 9 9 11 8 11 13 14 14 15 15 14 16 16 16 17 17 18 19 18 20 22 22 21 20 20 20 22 23 22 22 21 22 22 22 23 22 20 16 13
4 5 6 7 7 8 8 9 8 8 10 13 14 15 15 15 14 15 17 16 17 18 18 19 21 21 20 20 20 19 19 19 20 21 21 20 20 21 22 22 21 18 18 16 13
4 4 4 5 7 7 8 8 8 7 11 16 15 15 14 14 14 15 17 17 17 17 18 19 21 21 20 18 19 18 20 20 19 18 17 20 18 20 22 21 18 17 17 16 14
3 4 4 5 5 7 6 6 7 8 11 17 15 13 14 14 15 15 16 16 16 18 18 18 19 18 18 19 20 18 20 18 18 17 17 18 17 19 21 22 18 17 15 15 14
3 2 3 4 6 5 6 7 7 9 10 16 15 14 14 14 15 14 14 14 16 16 18 18 19 19 18 19 19 19 17 17 17 16 15 17 18 19 20 21 20 18 16 15 13
3 3 2 3 5 5 6 6 9 10 17 16 15 16 15 15 15 15 15 14 15 14 15 17 18 18 18 17 18 17 16 14 15 15 15 19 19 20 21 21 20 17 16 14 13
3 3 3 3 3 4 4 7 8 13 13 17 16 17 15 17 16 16 16 15 16 17 17 16 16 18 18 17 17 17 17 15 13 15 16 19 17 18 21 20 19 18 17 14 13
2 2 2 3 3 3 5 5 9 12 16 15 16 15 16 17 17 17 16 16 18 17 16 17 18 20 19 18 18 17 16 18 16 16 14 16 18 20 20 20 18 17 17 15 13
2 2 2 2 3 3 5 7 10 13 15 14 14 15 15 16 15 15 15 17 17 17 18 17 16 18 18 18 18 17 18 14 14 11 12 15 16 17 15 16 16 16 16 15 13
1 1 2 2 3 3 4 7 10 12 12 12 12 13 14 14 15 15 16 15 15 15 16 16 15 16 17 13 15 16 16 15 15 14 12 12 14 14 13 15 14 12 10 10 12
1 2 2 2 3 4 4 8 10 11 11 12 11 11 11 12 12 12 13 11 13 13 13 14 14 13 15 17 17 16 14 15 11 11 10 9 9 14 14 14 11 12 12 12 10
1 1 2 2 3 3 5 8 9 10 11 11 10 11 12 12 11 12 13 12 12 12 12 12 12 11 12 14 16 15 15 15 15 14 12 11 12 16 16 14 12 9 10 11 9
0 1 1 2 4 6 6 7 8 9 11 10 11 11 11 11 12 11 12 12 11 12 9 10 11 11 11 12 13 12 14 14 14 10 11 11 12 13 13 14 12 12 12 10 8
-0 1 2 1 2 6 7 8 8 9 10 10 10 10 10 9 10 10 11 12 12 11 10 11 9 11 11 12 13 13 13 14 13 13 11 12 13 14 15 15 13 12 11 8 7
-1 1 4 6 4 6 7 8 9 9 10 9 9 10 10 10 10 10 11 12 11 12 11 11 9 10 9 11 12 11 12 13 13 14 14 14 14 16 16 16 14 12 12 9 6
-0 1 3 5 5 5 6 8 9 10 10 11 10 10 10 10 8 9 9 9 10 10 9 9 7 8 8 10 10 8 10 12 13 14 14 11 14 15 14 13 12 10 10 8 5